DAORDAOO

Guest
Details From DAOR - BECHAR
To DAOO - ES SENIA
Flight Number -
Tags generated
Created
Modified
Stats Distance 283 nm / 523 km
Max Altitude 28,400 ft / 8,656 m
Waypoints 4
Social Downloads 1
Likes 0
Share VATSIM

Download

Looking for another format? Having issues loading an existing format? Contact us
Advertisement - Login to hide

Notes

Basic altitude profile: - Ascent Rate: 2500ft/min - Ascent Speed: 250kts - Cruise Altitude: 25000ft - Cruise Speed: 420kts - Descent Rate: 1500ft/min - Descent Speed: 250kts Options: - Use NATs: yes - Use PACOTS: yes - Use low airways: yes - Use high airways: yes

Route

DAOR GULTI UG664 KETIB DAOO

ID Type Via Altitude Latitude Longitude Leg Dist Tot Dist Heading (true) Name
O DAOR APT - 0 ft / 0 m 31.64575˚ -2.26986˚ - 0 nm - BECHAR
GULTI FIX - 28,400 ft / 8,656 m 34.13056˚ -2.49833˚ 149 nm 149 nm 356° / 356° -
KETIB FIX UG664 (AWY-HI) 23,500 ft / 7,163 m 34.57667˚ -2.32583˚ 28 nm 177 nm 18° / 18° -
O DAOO APT - 0 ft / 0 m 35.62386˚ -0.62118˚ 104 nm 282 nm 53° / 54° ES SENIA

Altitude Profile

Advertisement - Login to hide

Weather


0- 5 10 15 20 25 30 35+ Temperature / ° C

Clouds and Precipitation
Forecast for 2018-05-25 18:00 UTC. Updated 3 hours ago

Ground ~20,000 ft ~40,000 ft Winds

DAOR

Details ICAO DAOR (CBH)
Name BECHAR
Region Algeria
Timezone Africa/Algiers (UTC+1.0)
Stats Elevation 2,661 ft / 811 m (AMSL)
Location 31.645745° -2.269862°
Runways 2
Magnetic Variation 0.328° W

METAR

DAOR 252000Z 21008KT CAVOK 30/M07 Q1011

Decode

TAF

Not found

Departure Runways

ID Width Length Bearing (true) Bearing (mag) Surface Threshold Offset Overrun Length
06 148 ft / 45 m 12,238 ft / 3,730 m 59.85° 60.18° Asphalt 0 ft / 0 m 0 ft / 0 m
18 148 ft / 45 m 9,873 ft / 3,009 m 179.95° 180.28° Asphalt 0 ft / 0 m 0 ft / 0 m
24 148 ft / 45 m 12,238 ft / 3,730 m 239.86° 240.19° Asphalt 2,370 ft / 722 m 0 ft / 0 m
36 148 ft / 45 m 9,873 ft / 3,009 m 359.95° 0.28° Asphalt 0 ft / 0 m 0 ft / 0 m

DAOO

Details ICAO DAOO (ORN)
Name ES SENIA
Region Algeria
Timezone Africa/Algiers (UTC+1.0)
Stats Elevation 295 ft / 90 m (AMSL)
Location 35.623858° -0.621183°
Runways 1
Magnetic Variation 0.199° E

METAR

DAOO 252030Z 25004KT CAVOK 19/10 Q1013

Decode

TAF

TAF DAOO 251700Z 2518/2618 34012KT CAVOK BECMG 2513/2515 31014KT BECMG 2521/2524 VRB02KT BECMG 2609/2612 34012KT

Decode

Destination Runways

ID Width Length Bearing (true) Bearing (mag) Surface Threshold Offset Overrun Length
07 148 ft / 45 m 10,006 ft / 3,050 m 67.06° 66.86° Asphalt 0 ft / 0 m 328 ft / 100 m
25 148 ft / 45 m 10,006 ft / 3,050 m 247.08° 246.88° Asphalt 196 ft / 60 m 0 ft / 0 m